START_TIME,STEP,MOV.,M29,t_acc.,H22,t_acc.,H26,t_acc.,H30,t_acc.
1979-03-02 09:00:21.370 ,6,1,0.,24.0,0.,24.0,0.,24.0,0.,24.0
1979-03-02 09:00:45.370 ,5,1,0.,24.0,0.,24.0,0.,24.0,0.,24.0
1979-03-02 09:01:09.370 ,4,1,0.,24.0,0.,24.0,0.,24.0,0.,24.0
1979-03-02 09:01:33.370 ,3,1,0.,24.0,0.,24.0,0.,24.0,0.,24.0
1979-03-02 09:01:57.370 ,2,1,0.,24.0,0.,24.0,0.,24.0,0.,24.0
1979-03-02 09:02:21.370 ,1,1,0.,24.0,0.,24.0,0.,24.0,0.,24.0
1979-03-02 09:02:45.370 ,0,1,0.,24.0,0.,24.0,0.,24.0,0.,24.0
1979-03-02 09:03:09.370 ,0,1,0.,24.0,0.,24.0,0.,24.0,0.,24.0
1979-03-02 09:03:33.370 ,1,1,0.,24.0,0.,24.0,0.,24.0,0.,24.0
1979-03-02 09:03:57.370 ,2,1,0.,24.0,0.,24.0,0.,24.0,0.,24.0
1979-03-02 09:04:21.370 ,3,1,0.,24.0,0.,24.0,0.,24.0,0.,24.0
1979-03-02 09:04:45.370 ,4,1,0.,24.0,0.,24.0,0.,24.0,0.,24.0
1979-03-02 09:05:09.370 ,5,1,0.,24.0,0.,24.0,0.,24.0,0.,24.0
1979-03-02 09:05:33.370 ,6,1,0.,24.0,0.,24.0,0.,24.0,0.,24.0
1979-03-02 09:05:57.370 ,7,1,0.,24.0,0.,24.0,0.,24.0,0.,24.0
1979-03-02 09:06:21.370 ,7,1,0.,24.0,0.,24.0,0.,24.0,0.,24.0
1979-03-02 09:06:45.370 ,6,1,0.,24.0,0.,24.0,0.,24.0,0.,24.0
1979-03-02 09:07:09.370 ,5,1,0.,24.0,0.,24.0,0.,24.0,0.,24.0
1979-03-02 09:07:33.370 ,4,1,0.,24.0,0.,24.0,0.,24.0,0.,24.0
1979-03-02 09:07:57.370 ,3,1,0.,24.0,0.,24.0,0.,24.0,0.,24.0
1979-03-02 09:08:21.370 ,2,1,0.,24.0,0.,24.0,0.,24.0,0.,24.0
1979-03-02 09:08:45.370 ,1,1,0.,24.0,0.,24.0,0.,24.0,0.,24.0
1979-03-02 09:09:09.370 ,0,1,0.,24.0,0.,24.0,0.,24.0,0.,24.0
1979-03-02 09:09:33.370 ,0,1,0.,24.0,0.,24.0,0.,24.0,0.,24.0
1979-03-02 09:09:57.370 ,1,1,0.,24.0,0.,24.0,0.,24.0,0.,24.0
1979-03-02 09:10:21.370 ,2,1,0.,24.0,0.,24.0,0.,24.0,0.,24.0
1979-03-02 09:10:45.370 ,3,1,0.,24.0,0.,24.0,0.,24.0,0.,24.0
1979-03-02 09:11:09.370 ,4,1,0.,24.0,0.,24.0,0.,24.0,0.,24.0
1979-03-02 09:11:33.370 ,5,1,0.,24.0,0.,24.0,0.,24.0,0.,24.0
1979-03-02 09:11:57.370 ,6,1,0.,24.0,0.,24.0,0.,24.0,0.,24.0
1979-03-02 09:12:21.370 ,7,1,0.,24.0,0.,24.0,0.,24.0,0.,24.0
1979-03-02 09:12:45.370 ,7,1,0.,24.0,0.,24.0,0.,24.0,0.,24.0
1979-03-02 09:13:09.370 ,6,1,0.,24.0,0.,24.0,0.,24.0,0.,24.0
1979-03-02 09:13:33.370 ,5,1,0.,24.0,0.,24.0,0.,24.0,0.,24.0
1979-03-02 09:13:57.370 ,4,1,0.,24.0,0.,24.0,0.,24.0,0.,24.0
1979-03-02 09:14:21.370 ,3,1,0.,24.0,0.,24.0,0.,24.0,0.,24.0
1979-03-02 09:14:45.370 ,2,1,0.,24.0,0.,24.0,0.,24.0,0.,24.0
1979-03-02 09:15:09.370 ,1,1,0.,24.0,0.,24.0,0.,24.0,0.,24.0
1979-03-02 09:15:33.370 ,0,1,0.,24.0,0.,24.0,0.,24.0,0.,24.0
1979-03-02 09:15:57.370 ,0,1,0.,24.0,0.,24.0,0.,24.0,0.,24.0
1979-03-02 09:16:21.370 ,1,1,0.,24.0,0.,24.0,0.,24.0,0.,24.0
1979-03-02 09:16:45.370 ,2,1,0.,24.0,0.,24.0,0.,24.0,0.,24.0
1979-03-02 09:17:09.370 ,3,1,0.,24.0,0.,24.0,0.,24.0,0.,24.0
1979-03-02 09:17:33.370 ,4,1,0.,24.0,0.,24.0,0.,24.0,0.,24.0
1979-03-02 09:17:57.370 ,5,1,0.,24.0,0.,24.0,0.,24.0,0.,24.0
1979-03-02 09:18:21.370 ,6,1,0.,24.0,0.,24.0,0.,24.0,0.,24.0
1979-03-02 09:18:45.370 ,7,1,0.,24.0,0.,24.0,0.,24.0,0.,24.0
1979-03-02 09:19:09.370 ,7,1,0.,24.0,0.,24.0,0.,24.0,0.,24.0
1979-03-02 09:19:33.370 ,6,1,0.,24.0,0.,24.0,0.,24.0,0.,24.0
1979-03-02 09:19:57.370 ,5,1,0.,24.0,0.,24.0,0.,24.0,0.,24.0
1979-03-02 09:20:21.370 ,4,1,0.,24.0,0.,24.0,0.,24.0,0.,24.0
1979-03-02 09:20:45.370 ,3,1,0.,24.0,0.,24.0,0.,24.0,0.,24.0
1979-03-02 09:21:09.370 ,2,1,0.,24.0,0.,24.0,0.,24.0,0.,24.0
1979-03-02 09:21:33.370 ,1,1,0.,24.0,0.,24.0,0.,24.0,0.,24.0
1979-03-02 09:21:57.370 ,0,1,0.,24.0,0.,24.0,0.,24.0,0.,24.0
1979-03-02 09:22:21.370 ,0,1,0.,24.0,0.,24.0,0.,24.0,0.,24.0
1979-03-02 09:22:45.370 ,1,1,0.,24.0,0.,24.0,0.,24.0,0.,24.0
1979-03-02 09:23:09.370 ,2,1,0.,24.0,0.,24.0,0.,24.0,0.,24.0
1979-03-02 09:23:33.370 ,3,1,0.,24.0,0.,24.0,0.,24.0,0.,24.0
1979-03-02 09:23:57.370 ,4,1,0.,24.0,0.,24.0,0.,24.0,0.,24.0
1979-03-02 09:24:21.370 ,5,1,0.,24.0,0.,24.0,0.,24.0,0.,24.0
1979-03-02 09:24:45.370 ,6,1,0.,24.0,0.,24.0,0.,24.0,0.,24.0
1979-03-02 09:25:09.370 ,7,1,0.,24.0,0.,24.0,0.,24.0,0.,24.0
1979-03-02 09:25:33.370 ,7,1,0.,24.0,0.,24.0,0.,24.0,0.,24.0
1979-03-02 09:25:57.370 ,6,1,0.,24.0,0.,24.0,0.,24.0,0.,24.0
1979-03-02 09:26:21.370 ,5,1,0.,24.0,0.,24.0,0.,24.0,0.,24.0
1979-03-02 09:26:45.370 ,4,1,0.,24.0,0.,24.0,0.,24.0,0.,24.0
1979-03-02 09:27:09.370 ,3,1,0.,24.0,0.,24.0,0.,24.0,0.,24.0
1979-03-02 09:27:33.370 ,2,1,0.,24.0,0.,24.0,0.,24.0,0.,24.0
1979-03-02 09:27:57.370 ,1,1,0.,24.0,0.,24.0,0.,24.0,0.,24.0
1979-03-02 09:28:21.370 ,0,1,0.,24.0,0.,24.0,0.,24.0,0.,24.0
1979-03-02 09:28:45.370 ,0,1,0.,24.0,0.,24.0,0.,24.0,0.,24.0
1979-03-02 09:29:09.370 ,1,1,0.,24.0,0.,24.0,0.,24.0,0.,24.0
1979-03-02 09:29:33.370 ,2,1,0.,24.0,0.,24.0,0.,24.0,0.,24.0
1979-03-02 09:29:57.370 ,3,1,0.,24.0,0.,24.0,0.,24.0,0.,24.0
1979-03-02 09:30:21.370 ,4,1,0.,24.0,0.,24.0,0.,24.0,0.,24.0
1979-03-02 09:30:45.370 ,5,1,0.,24.0,0.,24.0,0.,24.0,0.,24.0
1979-03-02 09:31:09.370 ,6,1,0.,24.0,0.,24.0,0.,24.0,0.,24.0
1979-03-02 09:31:33.370 ,7,1,0.,24.0,0.,24.0,0.,24.0,0.,24.0
1979-03-02 09:31:57.370 ,7,1,0.,24.0,0.,24.0,0.,24.0,0.,24.0
1979-03-02 09:32:21.370 ,6,1,0.,24.0,0.,24.0,0.,24.0,0.,24.0
1979-03-02 09:32:45.370 ,5,1,0.,24.0,0.,24.0,0.,24.0,0.,24.0
1979-03-02 09:33:09.370 ,4,1,0.,24.0,0.,24.0,0.,24.0,0.,24.0
1979-03-02 09:33:33.370 ,3,1,0.,24.0,0.,24.0,0.,24.0,0.,24.0
1979-03-02 09:33:57.370 ,2,1,0.,24.0,0.,24.0,0.,24.0,0.,24.0
1979-03-02 09:34:21.370 ,1,1,0.,24.0,0.,24.0,0.,24.0,0.,24.0
1979-03-02 09:34:45.370 ,0,1,0.,24.0,0.,24.0,0.,24.0,0.,24.0
1979-03-02 09:35:09.370 ,0,1,0.,24.0,0.,24.0,0.,24.0,0.,24.0
1979-03-02 09:35:33.370 ,1,1,0.,24.0,0.,24.0,0.,24.0,0.,24.0
1979-03-02 09:35:57.370 ,2,1,0.,24.0,0.,24.0,0.,24.0,0.,24.0
1979-03-02 09:36:21.370 ,3,1,0.,24.0,0.,24.0,0.,24.0,0.,24.0
1979-03-02 09:36:45.370 ,4,1,0.,24.0,0.,24.0,0.,24.0,0.,24.0
1979-03-02 09:37:09.370 ,5,1,0.,24.0,0.,24.0,0.,24.0,0.,24.0
1979-03-02 09:37:33.370 ,6,1,0.,24.0,0.,24.0,0.,24.0,0.,24.0
1979-03-02 09:37:57.370 ,7,1,0.,24.0,0.,24.0,0.,24.0,0.,24.0
1979-03-02 09:38:21.370 ,7,1,0.,24.0,0.,24.0,0.,24.0,0.,24.0
1979-03-02 09:38:45.370 ,6,1,0.,24.0,0.,24.0,0.,24.0,0.,24.0
1979-03-02 09:39:09.370 ,5,1,0.,24.0,0.,24.0,0.,24.0,0.,24.0
1979-03-02 09:39:33.370 ,4,1,0.,24.0,0.,24.0,0.,24.0,0.,24.0
1979-03-02 09:39:57.370 ,3,1,0.,24.0,0.,24.0,0.,24.0,0.,24.0
1979-03-02 09:40:21.370 ,2,1,0.,24.0,0.,24.0,0.,24.0,0.,24.0
1979-03-02 09:40:45.370 ,1,1,0.,24.0,0.,24.0,0.,24.0,0.,24.0
1979-03-02 09:41:09.370 ,0,1,0.,24.0,0.,24.0,0.,24.0,0.,24.0
1979-03-02 09:41:33.370 ,0,1,0.,24.0,0.,24.0,0.,24.0,0.,24.0
1979-03-02 09:41:57.370 ,1,1,0.,24.0,0.,24.0,0.,24.0,0.,24.0
1979-03-02 09:42:21.370 ,2,1,0.,24.0,0.,24.0,0.,24.0,0.,24.0
1979-03-02 09:42:45.370 ,3,1,0.,24.0,0.,24.0,0.,24.0,0.,24.0
1979-03-02 09:43:09.370 ,4,1,0.,24.0,0.,24.0,0.,24.0,0.,24.0
1979-03-02 09:43:33.370 ,5,1,0.,24.0,0.,24.0,0.,24.0,0.,24.0
1979-03-02 09:43:57.370 ,6,1,0.,24.0,0.,24.0,0.,24.0,0.,24.0
1979-03-02 09:44:21.370 ,7,1,0.,24.0,0.,24.0,0.,24.0,0.,24.0
1979-03-02 09:44:45.370 ,7,1,0.,24.0,0.,24.0,0.,24.0,0.,24.0
1979-03-02 09:45:09.370 ,6,1,0.,24.0,0.,24.0,0.,24.0,0.,24.0
1979-03-02 09:45:33.370 ,5,1,0.,24.0,0.,24.0,0.,24.0,0.,24.0
1979-03-02 09:45:57.370 ,4,1,0.,24.0,0.,24.0,0.,24.0,0.,24.0
1979-03-02 09:46:21.370 ,3,1,0.,24.0,0.,24.0,0.,24.0,0.,24.0
1979-03-02 09:46:45.370 ,2,1,0.,24.0,0.,24.0,0.,24.0,0.,24.0
1979-03-02 09:47:09.370 ,1,1,0.,24.0,0.,24.0,0.,24.0,0.,24.0
1979-03-02 09:47:33.370 ,0,1,0.,24.0,0.,24.0,0.,24.0,0.,24.0
1979-03-02 09:47:57.370 ,0,1,0.,24.0,0.,24.0,0.,24.0,0.,24.0
1979-03-02 09:48:21.370 ,1,1,0.,24.0,0.,24.0,0.,24.0,0.,24.0
1979-03-02 09:48:45.370 ,2,1,0.,24.0,0.,24.0,0.,24.0,0.,24.0
1979-03-02 09:49:09.370 ,3,1,0.,24.0,0.,24.0,0.,24.0,0.,24.0
1979-03-02 09:49:33.370 ,4,1,0.,24.0,0.,24.0,0.,24.0,0.,24.0
1979-03-02 09:49:57.370 ,5,1,0.,24.0,0.,24.0,0.,24.0,0.,24.0
1979-03-02 09:50:21.370 ,6,1,0.,24.0,0.,24.0,0.,24.0,0.,24.0
1979-03-02 09:50:45.370 ,7,1,0.,24.0,0.,24.0,0.,24.0,0.,24.0
1979-03-02 09:51:09.370 ,7,1,0.,24.0,0.,24.0,0.,24.0,0.,24.0
1979-03-02 09:51:33.370 ,6,1,0.,24.0,0.,24.0,0.,24.0,0.,24.0
1979-03-02 09:51:57.370 ,5,1,0.,24.0,0.,24.0,0.,24.0,0.,24.0
1979-03-02 09:52:21.370 ,4,1,0.,24.0,0.,24.0,0.,24.0,0.,24.0
1979-03-02 09:52:45.370 ,3,1,0.,24.0,0.,24.0,0.,24.0,0.,24.0
1979-03-02 09:53:09.370 ,2,1,0.,24.0,0.,24.0,0.,24.0,0.,24.0
1979-03-02 09:53:33.370 ,1,1,0.,24.0,0.,24.0,0.,24.0,0.,24.0
1979-03-02 09:53:57.370 ,0,1,0.,24.0,0.,24.0,0.,24.0,0.,24.0
1979-03-02 09:54:21.370 ,0,1,0.,24.0,0.,24.0,0.,24.0,0.,24.0
1979-03-02 09:54:45.370 ,1,1,0.,24.0,0.,24.0,0.,24.0,0.,24.0
1979-03-02 09:55:09.370 ,2,1,0.,24.0,0.,24.0,0.,24.0,0.,24.0
1979-03-02 09:55:33.370 ,3,1,0.,24.0,0.,24.0,0.,24.0,0.,24.0
1979-03-02 09:55:57.370 ,4,1,0.,24.0,0.,24.0,0.,24.0,0.,24.0
1979-03-02 09:56:21.370 ,5,1,0.,24.0,0.,24.0,0.,24.0,0.,24.0
1979-03-02 09:56:45.370 ,6,1,0.,24.0,0.,24.0,0.,24.0,0.,24.0
1979-03-02 09:57:09.370 ,7,1,0.,24.0,0.,24.0,0.,24.0,0.,24.0
1979-03-02 09:57:33.370 ,7,1,0.,24.0,0.,24.0,0.,24.0,0.,24.0
1979-03-02 09:57:57.370 ,6,1,0.,24.0,0.,24.0,0.,24.0,0.,24.0
1979-03-02 09:58:21.370 ,5,1,0.,24.0,0.,24.0,0.,24.0,0.,24.0
1979-03-02 09:58:45.370 ,4,1,0.,24.0,0.,24.0,0.,24.0,0.,24.0
1979-03-02 09:59:09.370 ,3,1,0.,24.0,0.,24.0,0.,24.0,0.,24.0
1979-03-02 09:59:33.370 ,2,1,0.,24.0,0.,24.0,0.,24.0,0.,24.0
1979-03-02 09:59:57.370 ,1,1,0.,24.0,0.,24.0,0.,24.0,0.,24.0
1979-03-02 10:00:21.370 ,0,1,0.,24.0,0.,24.0,0.,24.0,0.,24.0
1979-03-02 10:00:45.370 ,0,1,0.,24.0,0.,24.0,0.,24.0,0.,24.0
1979-03-02 10:01:09.370 ,1,1,0.,24.0,0.,24.0,0.,24.0,0.,24.0
1979-03-02 10:01:33.370 ,2,1,0.,24.0,0.,24.0,0.,24.0,0.,24.0
1979-03-02 10:01:57.370 ,3,1,0.,24.0,0.,24.0,0.,24.0,0.,24.0
1979-03-02 10:02:21.370 ,4,1,0.,24.0,0.,24.0,0.,24.0,0.,24.0
1979-03-02 10:02:45.370 ,5,1,0.,24.0,0.,24.0,0.,24.0,0.,24.0
1979-03-02 10:03:09.370 ,6,1,0.,24.0,0.,24.0,0.,24.0,0.,24.0
1979-03-02 10:03:33.370 ,7,1,0.,24.0,0.,24.0,0.,24.0,0.,24.0
1979-03-02 10:03:57.370 ,7,1,0.,24.0,0.,24.0,0.,24.0,0.,24.0
1979-03-02 10:04:21.370 ,6,1,0.,24.0,0.,24.0,0.,24.0,0.,24.0
1979-03-02 10:04:45.370 ,5,1,0.,24.0,0.,24.0,0.,24.0,0.,24.0
1979-03-02 10:05:09.370 ,4,1,0.,24.0,0.,24.0,0.,24.0,0.,24.0
1979-03-02 10:05:33.370 ,3,1,0.,24.0,0.,24.0,0.,24.0,0.,24.0
1979-03-02 10:05:57.370 ,2,1,0.,24.0,0.,24.0,0.,24.0,0.,24.0
1979-03-02 10:06:21.370 ,1,1,0.,24.0,0.,24.0,0.,24.0,0.,24.0
1979-03-02 10:06:45.370 ,0,1,0.,24.0,0.,24.0,0.,24.0,0.,24.0
1979-03-02 10:07:09.370 ,0,1,0.,24.0,0.,24.0,0.,24.0,0.,24.0
1979-03-02 10:07:33.370 ,1,1,0.,24.0,0.,24.0,0.,24.0,0.,24.0
1979-03-02 10:07:57.370 ,2,1,0.,24.0,0.,24.0,0.,24.0,0.,24.0
1979-03-02 10:08:21.370 ,3,1,0.,24.0,0.,24.0,0.,24.0,0.,24.0
1979-03-02 10:08:45.370 ,4,1,0.,24.0,0.,24.0,0.,24.0,0.,24.0
1979-03-02 10:09:09.370 ,5,1,0.,24.0,0.,24.0,0.,24.0,0.,24.0
1979-03-02 10:09:33.370 ,6,1,0.,24.0,0.,24.0,0.,24.0,0.,24.0
1979-03-02 10:09:57.370 ,7,1,0.,24.0,0.,24.0,0.,24.0,0.,24.0
1979-03-02 10:10:21.370 ,7,1,0.,24.0,0.,24.0,0.,24.0,0.,24.0
1979-03-02 10:10:45.370 ,6,1,0.,24.0,0.,24.0,0.,24.0,0.,24.0
1979-03-02 10:11:09.370 ,5,1,0.,24.0,0.,24.0,0.,24.0,0.,24.0
1979-03-02 10:11:33.370 ,4,1,0.,24.0,0.,24.0,0.,24.0,0.,24.0
1979-03-02 10:11:57.370 ,3,1,0.,24.0,0.,24.0,0.,24.0,0.,24.0
1979-03-02 10:12:21.370 ,2,1,0.,24.0,0.,24.0,0.,24.0,0.,24.0
1979-03-02 10:12:45.370 ,1,1,0.,24.0,0.,24.0,0.,24.0,0.,24.0
1979-03-02 10:13:09.370 ,0,1,0.,24.0,0.,24.0,0.,24.0,0.,24.0
1979-03-02 10:13:33.370 ,0,1,0.,24.0,0.,24.0,0.,24.0,0.,24.0
1979-03-02 10:13:57.370 ,1,1,0.,24.0,0.,24.0,0.,24.0,0.,24.0
1979-03-02 10:14:21.370 ,2,1,0.,24.0,0.,24.0,0.,24.0,0.,24.0
1979-03-02 10:14:45.370 ,3,1,0.,24.0,0.,24.0,0.,24.0,0.,24.0
1979-03-02 10:15:09.370 ,4,1,0.,24.0,0.,24.0,0.,24.0,0.,24.0
1979-03-02 10:15:33.370 ,5,1,0.,24.0,0.,24.0,0.,24.0,0.,24.0
1979-03-02 10:15:57.370 ,6,1,0.,24.0,0.,24.0,0.,24.0,0.,24.0
1979-03-02 10:16:21.370 ,7,1,0.,24.0,0.,24.0,0.,24.0,0.,24.0
1979-03-02 10:16:45.370 ,7,1,0.,24.0,0.,24.0,0.,24.0,0.,24.0
1979-03-02 10:17:09.370 ,6,1,0.,24.0,0.,24.0,0.,24.0,0.,24.0
1979-03-02 10:17:33.370 ,5,1,0.,24.0,0.,24.0,0.,24.0,0.,24.0
1979-03-02 10:17:57.370 ,4,1,0.,24.0,0.,24.0,0.,24.0,0.,24.0
1979-03-02 10:18:21.370 ,3,1,0.,24.0,0.,24.0,0.,24.0,0.,24.0
1979-03-02 10:18:45.370 ,2,1,0.,24.0,0.,24.0,0.,24.0,0.,24.0
1979-03-02 10:19:09.370 ,1,1,0.,24.0,0.,24.0,0.,24.0,0.,24.0
1979-03-02 10:19:33.370 ,0,1,0.,24.0,0.,24.0,0.,24.0,0.,24.0
1979-03-02 10:19:57.370 ,0,1,0.,24.0,0.,24.0,0.,24.0,0.,24.0
1979-03-02 10:20:21.370 ,1,1,0.,24.0,0.,24.0,0.,24.0,0.,24.0
1979-03-02 10:20:45.370 ,2,1,0.,24.0,0.,24.0,0.,24.0,0.,24.0
1979-03-02 10:21:09.370 ,3,1,0.,24.0,0.,24.0,0.,24.0,0.,24.0
1979-03-02 10:21:33.370 ,4,1,0.,24.0,0.,24.0,0.,24.0,0.,24.0
1979-03-02 10:21:57.370 ,5,1,0.,24.0,0.,24.0,0.,24.0,0.,24.0
1979-03-02 10:22:21.370 ,6,1,0.,24.0,0.,24.0,0.,24.0,0.,24.0
1979-03-02 10:22:45.370 ,7,1,0.,24.0,0.,24.0,0.,24.0,0.,24.0
1979-03-02 10:23:09.370 ,7,1,0.,24.0,0.,24.0,0.,24.0,0.,24.0
1979-03-02 10:23:33.370 ,6,1,0.,24.0,0.,24.0,0.,24.0,0.,24.0
1979-03-02 10:23:57.370 ,5,1,0.,24.0,0.,24.0,0.,24.0,0.,24.0
1979-03-02 10:24:21.370 ,4,1,0.,24.0,0.,24.0,0.,24.0,0.,24.0
1979-03-02 10:24:45.370 ,3,1,0.,24.0,0.,24.0,0.,24.0,0.,24.0
1979-03-02 10:25:09.370 ,2,1,0.,24.0,0.,24.0,0.,24.0,0.,24.0
1979-03-02 10:25:33.370 ,1,1,0.,24.0,0.,24.0,0.,24.0,0.,24.0
1979-03-02 10:25:57.370 ,0,1,0.,24.0,0.,24.0,0.,24.0,0.,24.0
1979-03-02 10:26:21.370 ,0,1,0.,24.0,0.,24.0,0.,24.0,0.,24.0
1979-03-02 10:26:45.370 ,1,1,0.,24.0,0.,24.0,0.,24.0,0.,24.0
1979-03-02 10:27:09.370 ,2,1,0.,24.0,0.,24.0,0.,24.0,0.,24.0
1979-03-02 10:27:33.370 ,3,1,0.,24.0,0.,24.0,0.,24.0,0.,24.0
1979-03-02 10:27:57.370 ,4,1,0.,24.0,0.,24.0,0.,24.0,0.,24.0
1979-03-02 10:28:21.370 ,5,1,0.,24.0,0.,24.0,0.,24.0,0.,24.0
1979-03-02 10:28:45.370 ,6,1,0.,24.0,0.,24.0,0.,24.0,0.,24.0
1979-03-02 10:29:09.370 ,7,1,0.,24.0,0.,24.0,0.,24.0,0.,24.0
1979-03-02 10:29:33.370 ,7,1,0.,24.0,0.,24.0,0.,24.0,0.,24.0
1979-03-02 10:29:57.370 ,6,1,0.,24.0,0.,24.0,0.,24.0,0.,24.0
1979-03-02 10:30:21.370 ,5,1,0.,24.0,0.,24.0,0.,24.0,0.,24.0
1979-03-02 10:30:45.370 ,4,1,0.,24.0,0.,24.0,0.,24.0,0.,24.0
1979-03-02 10:31:09.370 ,3,1,0.,24.0,0.,24.0,0.,24.0,0.,24.0
1979-03-02 10:31:33.370 ,2,1,0.,24.0,0.,24.0,0.,24.0,0.,24.0
1979-03-02 10:31:57.370 ,1,1,0.,24.0,0.,24.0,0.,24.0,0.,24.0
1979-03-02 10:32:21.370 ,0,1,0.,24.0,0.,24.0,0.,24.0,0.,24.0
1979-03-02 10:32:45.370 ,0,1,0.,24.0,0.,24.0,0.,24.0,0.,24.0
1979-03-02 10:33:09.370 ,1,1,0.,24.0,0.,24.0,0.,24.0,0.,24.0
1979-03-02 10:33:33.370 ,2,1,0.,24.0,0.,24.0,0.,24.0,0.,24.0
1979-03-02 10:33:57.370 ,3,1,0.,24.0,0.,24.0,0.,24.0,0.,24.0
1979-03-02 10:34:21.370 ,4,1,0.,24.0,0.,24.0,0.,24.0,0.,24.0
1979-03-02 10:34:45.370 ,5,1,0.,24.0,0.,24.0,0.,24.0,0.,24.0
1979-03-02 10:35:09.370 ,6,1,0.,24.0,0.,24.0,0.,24.0,0.,24.0
1979-03-02 10:35:33.370 ,7,1,0.,24.0,0.,24.0,0.,24.0,0.,24.0
1979-03-02 10:35:57.370 ,7,1,0.,24.0,0.,24.0,0.,24.0,0.,24.0
1979-03-02 10:36:21.370 ,6,1,0.,24.0,0.,24.0,0.,24.0,0.,24.0
1979-03-02 10:36:45.370 ,5,1,0.,24.0,0.,24.0,0.,24.0,0.,24.0
1979-03-02 10:37:09.370 ,4,1,0.,24.0,0.,24.0,0.,24.0,0.,24.0
1979-03-02 10:37:33.370 ,3,1,0.,24.0,0.,24.0,0.,24.0,0.,24.0
1979-03-02 10:37:57.370 ,2,1,0.,24.0,0.,24.0,0.,24.0,0.,24.0
1979-03-02 10:38:21.370 ,1,1,0.,24.0,0.,24.0,0.,24.0,0.,24.0
1979-03-02 10:38:45.370 ,0,1,0.,24.0,0.,24.0,0.,24.0,0.,24.0
1979-03-02 10:39:09.370 ,0,1,0.,24.0,0.,24.0,0.,24.0,0.,24.0
1979-03-02 10:39:33.370 ,1,1,0.,24.0,0.,24.0,0.,24.0,0.,24.0
1979-03-02 10:39:57.370 ,2,1,0.,24.0,0.,24.0,0.,24.0,0.,24.0
1979-03-02 10:40:21.370 ,3,1,0.,24.0,0.,24.0,0.,24.0,0.,24.0
1979-03-02 10:40:45.370 ,4,1,0.,24.0,0.,24.0,0.,24.0,0.,24.0
1979-03-02 10:41:09.370 ,5,1,0.,24.0,0.,24.0,0.,24.0,0.,24.0
1979-03-02 10:41:33.370 ,6,1,0.,24.0,0.,24.0,0.,24.0,0.,24.0
1979-03-02 10:41:57.370 ,7,1,0.,24.0,0.,24.0,0.,24.0,0.,24.0
1979-03-02 10:42:21.370 ,7,1,0.,24.0,0.,24.0,0.,24.0,0.,24.0
1979-03-02 10:42:45.370 ,6,1,0.,24.0,0.,24.0,0.,24.0,0.,24.0
1979-03-02 10:43:09.370 ,5,1,0.,24.0,0.,24.0,0.,24.0,0.,24.0
1979-03-02 10:43:33.370 ,4,1,0.,24.0,0.,24.0,0.,24.0,0.,24.0
1979-03-02 10:43:57.370 ,3,1,0.,24.0,0.,24.0,0.,24.0,0.,24.0
1979-03-02 10:44:21.370 ,2,1,0.,24.0,0.,24.0,0.,24.0,0.,24.0
1979-03-02 10:44:45.370 ,1,1,0.,24.0,0.,24.0,0.,24.0,0.,24.0
1979-03-02 10:45:09.370 ,0,1,0.,24.0,0.,24.0,0.,24.0,0.,24.0
1979-03-02 10:45:33.370 ,0,1,0.,24.0,0.,24.0,0.,24.0,0.,24.0
1979-03-02 10:45:57.370 ,1,1,0.,24.0,0.,24.0,0.,24.0,0.,24.0
1979-03-02 10:46:21.370 ,2,1,0.,24.0,0.,24.0,0.,24.0,0.,24.0
1979-03-02 10:46:45.370 ,3,1,0.,24.0,0.,24.0,0.,24.0,0.,24.0
1979-03-02 10:47:09.370 ,4,1,0.,24.0,0.,24.0,0.,24.0,0.,24.0
1979-03-02 10:47:33.370 ,5,1,0.,24.0,0.,24.0,0.,24.0,0.,24.0
1979-03-02 10:47:57.370 ,6,1,0.,24.0,0.,24.0,0.,24.0,0.,24.0
1979-03-02 10:48:21.370 ,7,1,0.,24.0,0.,24.0,0.,24.0,0.,24.0
1979-03-02 10:48:45.370 ,7,1,0.,24.0,0.,24.0,0.,24.0,0.,24.0
1979-03-02 10:49:09.370 ,6,1,0.,24.0,0.,24.0,0.,24.0,0.,24.0
1979-03-02 10:49:33.370 ,5,1,0.,24.0,0.,24.0,0.,24.0,0.,24.0
1979-03-02 10:49:57.370 ,4,1,0.,24.0,0.,24.0,0.,24.0,0.,24.0
1979-03-02 10:50:21.370 ,3,1,0.,24.0,0.,24.0,0.,24.0,0.,24.0
1979-03-02 10:50:45.370 ,2,1,0.,24.0,0.,24.0,0.,24.0,0.,24.0
1979-03-02 10:51:09.370 ,1,1,0.,24.0,0.,24.0,0.,24.0,0.,24.0
1979-03-02 10:51:33.370 ,0,1,0.,24.0,0.,24.0,0.,24.0,0.,24.0
1979-03-02 10:51:57.370 ,0,1,0.,24.0,0.,24.0,0.,24.0,0.,24.0
1979-03-02 10:52:21.370 ,1,1,0.,24.0,0.,24.0,0.,24.0,0.,24.0
1979-03-02 10:52:45.370 ,2,1,0.,24.0,0.,24.0,0.,24.0,0.,24.0
1979-03-02 10:53:09.370 ,3,1,0.,24.0,0.,24.0,0.,24.0,0.,24.0
1979-03-02 10:53:33.370 ,0,0,0.,24.0,0.,24.0,0.,24.0,0.,24.0
1979-03-02 10:53:57.370 ,5,1,0.,24.0,0.,24.0,0.,24.0,0.,24.0
1979-03-02 10:54:21.370 ,6,1,0.,24.0,0.,24.0,0.,24.0,0.,24.0
1979-03-02 10:54:45.370 ,7,1,0.,24.0,0.,24.0,0.,24.0,0.,24.0
1979-03-02 10:55:09.370 ,7,1,0.,24.0,0.,24.0,0.,24.0,0.,24.0
1979-03-02 10:55:33.370 ,6,1,0.,24.0,0.,24.0,0.,24.0,0.,24.0
1979-03-02 10:55:57.370 ,5,1,0.,24.0,0.,24.0,0.,24.0,0.,24.0
1979-03-02 10:56:21.370 ,4,1,0.,24.0,0.,24.0,0.,24.0,0.,24.0
1979-03-02 10:56:45.370 ,3,1,0.,24.0,0.,24.0,0.,24.0,0.,24.0
1979-03-02 10:57:09.370 ,2,1,0.,24.0,0.,24.0,0.,24.0,0.,24.0
1979-03-02 10:57:33.370 ,1,1,0.,24.0,0.,24.0,0.,24.0,0.,24.0
1979-03-02 10:57:57.370 ,0,1,0.,24.0,0.,24.0,0.,24.0,0.,24.0
1979-03-02 10:58:21.370 ,0,1,0.,24.0,0.,24.0,0.,24.0,0.,24.0
1979-03-02 10:58:45.370 ,1,1,0.,24.0,0.,24.0,0.,24.0,0.,24.0
1979-03-02 10:59:09.370 ,2,1,0.,24.0,0.,24.0,0.,24.0,0.,24.0
1979-03-02 10:59:33.370 ,3,1,0.,24.0,0.,24.0,0.,24.0,0.,24.0
1979-03-02 10:59:57.370 ,4,1,0.,24.0,0.,24.0,0.,24.0,0.,24.0
1979-03-02 11:00:21.370 ,5,1,0.,24.0,0.,24.0,0.,24.0,0.,24.0
1979-03-02 11:00:45.370 ,6,1,0.,24.0,0.,24.0,0.,24.0,0.,24.0
1979-03-02 11:01:09.370 ,7,1,0.,24.0,0.,24.0,0.,24.0,0.,24.0
1979-03-02 11:01:33.370 ,7,1,0.,24.0,0.,24.0,0.,24.0,0.,24.0
1979-03-02 11:01:57.370 ,6,1,0.,24.0,0.,24.0,0.,24.0,0.,24.0
1979-03-02 11:02:21.370 ,5,1,0.,24.0,0.,24.0,0.,24.0,0.,24.0
1979-03-02 11:02:45.370 ,4,1,0.,24.0,0.,24.0,0.,24.0,0.,24.0
1979-03-02 11:03:09.370 ,3,1,0.,24.0,0.,24.0,0.,24.0,0.,24.0
1979-03-02 11:03:33.370 ,2,1,0.,24.0,0.,24.0,0.,24.0,0.,24.0
1979-03-02 11:03:57.370 ,1,1,0.,24.0,0.,24.0,0.,24.0,0.,24.0
1979-03-02 11:04:21.370 ,0,1,0.,24.0,0.,24.0,0.,24.0,0.,24.0
1979-03-02 11:04:45.370 ,0,1,0.,24.0,0.,24.0,0.,24.0,0.,24.0
1979-03-02 11:05:09.370 ,1,1,0.,24.0,0.,24.0,0.,24.0,0.,24.0
1979-03-02 11:05:33.370 ,2,1,0.,24.0,0.,24.0,0.,24.0,0.,24.0
1979-03-02 11:05:57.370 ,3,1,0.,24.0,0.,24.0,0.,24.0,0.,24.0
1979-03-02 11:06:21.370 ,4,1,0.,24.0,0.,24.0,0.,24.0,0.,24.0
1979-03-02 11:06:45.370 ,5,1,0.,24.0,0.,24.0,0.,24.0,0.,24.0
1979-03-02 11:07:09.370 ,6,1,0.,24.0,0.,24.0,0.,24.0,0.,24.0
1979-03-02 11:07:33.370 ,7,1,0.,24.0,0.,24.0,0.,24.0,0.,24.0
1979-03-02 11:07:57.370 ,0,0,,0,,0,,0,,0
1979-03-02 11:08:21.370 ,0,0,,0,,0,,0,,0
1979-03-02 11:08:21.370 ,0,0,,0,,0,,0,,0
1979-03-02 11:09:06.370 ,0,0,,0,,0,,0,,0
1979-03-02 11:09:09.370 ,0,0,,0,,0,,0,,0
1979-03-02 11:09:35.170 ,0,0,,0,,0,,0,,0
1979-03-02 11:09:57.370 ,0,0,,0,,0,,0,,0
1979-03-02 11:10:23.770 ,0,0,,0,,0,,0,,0
1979-03-02 11:10:45.370 ,0,0,,0,,0,,0,,0
1979-03-02 11:11:12.970 ,0,0,0.,24.0,0.,24.0,0.,24.0,0.,24.0
1979-03-02 11:11:33.370 ,1,1,0.,24.0,0.,24.0,0.,24.0,0.,24.0
1979-03-02 11:11:57.370 ,2,1,0.,24.0,0.,24.0,0.,24.0,0.,24.0
1979-03-02 11:12:21.370 ,3,1,0.,24.0,0.,24.0,0.,24.0,0.,24.0
1979-03-02 11:12:45.370 ,4,1,0.,24.0,0.,24.0,0.,24.0,0.,24.0
1979-03-02 11:13:09.370 ,5,1,0.,24.0,0.,24.0,0.,24.0,0.,24.0
1979-03-02 11:13:33.370 ,6,1,0.,24.0,0.,24.0,0.,24.0,0.,24.0
1979-03-02 11:13:57.370 ,7,1,0.,24.0,0.,24.0,0.,24.0,0.,24.0
1979-03-02 11:14:21.370 ,7,1,0.,24.0,0.,24.0,0.,24.0,0.,24.0
1979-03-02 11:14:45.370 ,6,1,0.,24.0,0.,24.0,0.,24.0,0.,24.0
1979-03-02 11:15:09.370 ,5,1,0.,24.0,0.,24.0,0.,24.0,0.,24.0
1979-03-02 11:15:33.370 ,4,1,0.,24.0,0.,24.0,0.,24.0,0.,24.0
1979-03-02 11:15:57.370 ,3,1,0.,24.0,0.,24.0,0.,24.0,0.,24.0
1979-03-02 11:16:21.370 ,2,1,0.,24.0,0.,24.0,0.,24.0,0.,24.0
1979-03-02 11:16:45.370 ,1,1,0.,24.0,0.,24.0,0.,24.0,0.,24.0
1979-03-02 11:17:09.370 ,0,1,0.,24.0,0.,24.0,0.,24.0,0.,24.0
1979-03-02 11:17:33.370 ,0,1,0.,24.0,0.,24.0,0.,24.0,0.,24.0
1979-03-02 11:17:57.370 ,1,1,0.,24.0,0.,24.0,0.,24.0,0.,24.0
1979-03-02 11:18:21.370 ,2,1,0.,24.0,0.,24.0,0.,24.0,0.,24.0
1979-03-02 11:18:45.370 ,3,1,0.,24.0,0.,24.0,0.,24.0,0.,24.0
1979-03-02 11:19:09.370 ,4,1,0.,24.0,0.,24.0,0.,24.0,0.,24.0
1979-03-02 11:19:33.370 ,5,1,0.,24.0,0.,24.0,0.,24.0,0.,24.0
1979-03-02 11:19:57.370 ,6,1,0.,24.0,0.,24.0,0.,24.0,0.,24.0
1979-03-02 11:20:21.370 ,7,1,0.,24.0,0.,24.0,0.,24.0,0.,24.0
1979-03-02 11:20:45.370 ,7,1,0.,24.0,0.,24.0,0.,24.0,0.,24.0
1979-03-02 11:21:09.370 ,6,1,0.,24.0,0.,24.0,0.,24.0,0.,24.0
1979-03-02 11:21:33.370 ,5,1,0.,24.0,0.,24.0,0.,24.0,0.,24.0
1979-03-02 11:21:57.370 ,4,1,0.,24.0,0.,24.0,0.,24.0,0.,24.0
1979-03-02 11:22:21.370 ,0,0,0.,24.0,0.,24.0,0.,24.0,0.,24.0
1979-03-02 11:22:45.370 ,0,0,0.,24.0,0.,24.0,0.,24.0,0.,24.0
1979-03-02 11:23:09.370 ,1,1,0.,24.0,0.,24.0,0.,24.0,0.,24.0
1979-03-02 11:23:33.370 ,0,1,0.,24.0,0.,24.0,0.,24.0,0.,24.0
1979-03-02 11:23:57.370 ,0,1,0.,24.0,0.,24.0,0.,24.0,0.,24.0
1979-03-02 11:24:21.370 ,1,1,0.,24.0,0.,24.0,0.,24.0,0.,24.0
1979-03-02 11:24:45.370 ,2,1,0.,24.0,0.,24.0,0.,24.0,0.,24.0
1979-03-02 11:25:09.370 ,3,0,,0,,0,,0,,0
1979-03-02 11:25:33.370 ,4,1,0.,24.0,0.,24.0,0.,24.0,0.,24.0
1979-03-02 11:25:57.370 ,5,1,0.,24.0,0.,24.0,0.,24.0,0.,24.0
1979-03-02 11:26:21.370 ,0,0,0.,24.0,0.,24.0,0.,24.0,0.,24.0
1979-03-02 11:26:45.370 ,0,0,0.,24.0,0.,24.0,0.,24.0,0.,24.0
1979-03-02 11:27:09.370 ,7,1,0.,24.0,0.,24.0,0.,24.0,0.,24.0
1979-03-02 11:27:33.370 ,6,1,0.,24.0,0.,24.0,0.,24.0,0.,24.0
1979-03-02 11:27:57.370 ,5,1,0.,24.0,0.,24.0,0.,24.0,0.,24.0
1979-03-02 11:28:21.370 ,4,1,0.,24.0,0.,24.0,0.,24.0,0.,24.0
1979-03-02 11:28:45.370 ,3,1,0.,24.0,0.,24.0,0.,24.0,0.,24.0
1979-03-02 11:29:09.370 ,2,1,0.,24.0,0.,24.0,0.,24.0,0.,24.0
1979-03-02 11:29:33.370 ,1,1,0.,24.0,0.,24.0,0.,24.0,0.,24.0
1979-03-02 11:29:57.370 ,0,1,0.,24.0,0.,24.0,0.,24.0,0.,24.0
1979-03-02 11:30:21.370 ,0,1,0.,24.0,0.,24.0,0.,24.0,0.,24.0
1979-03-02 11:30:45.370 ,1,1,0.,24.0,0.,24.0,0.,24.0,0.,24.0
1979-03-02 11:31:09.370 ,2,1,0.,24.0,0.,24.0,0.,24.0,0.,24.0
1979-03-02 11:31:33.370 ,3,1,0.,24.0,0.,24.0,0.,24.0,0.,24.0
1979-03-02 11:31:57.370 ,4,1,0.,24.0,0.,24.0,0.,24.0,0.,24.0
1979-03-02 11:32:21.370 ,5,1,0.,24.0,0.,24.0,0.,24.0,0.,24.0
1979-03-02 11:32:45.370 ,6,1,0.,24.0,0.,24.0,0.,24.0,0.,24.0
1979-03-02 11:33:09.370 ,7,1,0.,24.0,0.,24.0,0.,24.0,0.,24.0
1979-03-02 11:33:33.370 ,7,1,0.,24.0,0.,24.0,0.,24.0,0.,24.0
1979-03-02 11:33:57.370 ,6,1,0.,24.0,0.,24.0,0.,24.0,0.,24.0
1979-03-02 11:34:21.370 ,5,1,0.,24.0,0.,24.0,0.,24.0,0.,24.0
1979-03-02 11:34:45.370 ,4,1,0.,24.0,0.,24.0,0.,24.0,0.,24.0
1979-03-02 11:35:09.370 ,3,1,0.,24.0,0.,24.0,0.,24.0,0.,24.0